IRIDIUM 33 DEB, 46972

Orbit data source: Space-Track

IRIDIUM 33 DEB, 46972 is space debris in LEO originally from a launch on Sun, 14 Sep 1997 UTC launched from the Tyuratam Missile And Space Complex (TTMTR). The debris from Iridium 33, an American commercial communications satellite, has been tracked extensively since its accidental collision with the defunct Russian satellite Cosmos 2251 in 2009. This event, occurring at high speed in low Earth orbit (LEO), generated thousands of pieces of space debris, significantly increasing the risk of further collisions. The Iridium 33 debris cloud has impacted space traffic management and orbital debris mitigation strategies, making it a subject of ongoing study in space situational awareness.

Loading next visibility...
Identifier
46972, 1997-051ACE
Orbit
LEO
Country
Flag of USUS
Related business
Manufacturer
Unknown
Mission
Spacecraft
Bus & Motor
Unknown
Mass
Unknown
Launch date (UTC)
1997-09-14 (29 years ago)
Launch vehicle
Unknown
Launch site
Tyuratam Missile And Space Complex (TTMTR)
Object type
Payload
Rocket body
Debris
Shape & HBR
Unknown shape, 0.1 m
Radar Cross Section
Small (<0.1 m²)

Expand to show TLE details & history
Last TLE update: 3 days ago

TLE from 3 days ago
0 IRIDIUM 33 DEB
1 46972U 97051ACE 26263.35329984  .00000957  00000-0  23336-3 0  9993
2 46972  86.3808 278.0621 0006966 233.7225 189.9700 14.51719012656574
Epoch: 2026-09-20T08:28Z
TLE epoch observation values (Epoch: 2026-09-20T08:28:45.106Z)
Latitude
63.53817°
Longitude
158.88672°
Altitude
735.932 km
Speed
7.49 km/s
True Right ascension
19h 01m 17s
True Declination
63° 24' 01"
Sunlit
Object was in daylight at epoch
Visualization orbit readout
Latitude
Unknown
Longitude
Unknown
Altitude
Unknown
Speed
Unknown
Apparent Right ascension
Unknown
Apparent Declination
Unknown
Sunlit
N/A
Visualization observer readout
Local Sidereal Time
11:34:52
Azimuth
Unknown
Elevation
Unknown
Doppler factor
Unknown
Orbital elements
Apogee altitude
721.922 km
Perigee altitude
712.037 km
Semi-major axis
7,095.117 km
Eccentricity
0.0007
Inclination
86.3808°
RAAN
278.0621°
Arg. of periapsis
233.7225°
True anomaly
189.95619°
Mean anomaly
189.97°
Eccentric anomaly
189.96309°
Mean motion
3.63165 °/min
Orbital period
99.13 mins
BSTAR
0.00023336
Loading maneuver chart data...
Computing Atmospheric mass density...

Documentation

Showing up to 5 results
|